Location: Narrabri
(30.3170°S, 149.7830°E)
Time: 23:18:02
(UTC+10:00)

Vanguard 1 Rocket - All Passes

Search period start: 23 July 2018 00:00
Search period end: 02 August 2018 00:00
Orbit: 652 x 4225 km, 34.3° (Epoch: 22 July)

Date Brightness Start Highest point End Pass type
(mag) Time Alt. Az. Time Alt. Az. Time Alt. Az.
23 Jul - 00:30:46 10° WSW 00:43:45 85° NNW 01:07:57 10° ENE visible
23 Jul - 02:57:50 10° WSW 03:14:58 48° NW 03:39:13 10° NNE visible
23 Jul - 05:33:29 10° WNW 05:46:26 17° NW 06:00:13 10° NNW visible
23 Jul - 18:31:20 10° NW 18:36:09 47° NNE 18:43:55 10° ESE visible
23 Jul - 20:54:58 10° W 21:01:52 74° S 21:15:44 10° ESE visible
23 Jul - 23:19:44 10° WSW 23:30:17 83° SSE 23:51:31 10° ENE visible
24 Jul - 01:45:33 10° WSW 02:00:37 62° NNW 02:25:28 10° NE visible
24 Jul - 04:15:45 10° W 04:32:03 28° NW 04:51:47 10° N visible
24 Jul - 17:22:13 10° N 17:25:47 21° NE 17:30:21 10° E daylight
24 Jul - 19:44:32 10° WNW 19:50:13 87° SSW 20:00:52 10° ESE visible
24 Jul - 22:08:59 10° WSW 22:17:28 74° S 22:34:52 10° E visible
25 Jul - 00:34:03 10° WSW 00:46:43 76° NNW 01:10:22 10° ENE visible
25 Jul - 03:01:31 10° W 03:17:40 40° NW 03:40:21 10° NNE visible
25 Jul - 05:43:20 10° WNW 05:49:19 11° NW 05:55:30 10° NNW visible
25 Jul - 18:34:23 10° NW 18:39:12 63° NNE 18:47:06 10° ESE visible
25 Jul - 20:58:25 10° W 21:05:14 70° S 21:18:49 10° E visible
25 Jul - 23:23:04 10° WSW 23:33:24 90° SSE 23:54:18 10° ENE visible
26 Jul - 01:48:58 10° WSW 02:03:27 53° NNW 02:27:07 10° NE visible
26 Jul - 04:20:53 10° W 04:34:49 21° NW 04:51:22 10° N visible
26 Jul - 17:24:39 10° NNW 17:28:41 32° NE 17:34:02 10° E daylight
26 Jul - 19:47:56 10° W 19:53:32 75° S 20:03:55 10° ESE visible
26 Jul - 22:12:23 10° WSW 22:20:44 77° SSE 22:37:54 10° E visible
27 Jul - 00:37:23 10° WSW 00:49:39 67° NNW 01:12:30 10° NE visible
27 Jul - 03:05:34 10° W 03:20:27 32° NW 03:40:59 10° NNE visible
27 Jul - 16:16:09 10° N 16:18:17 13° NE 16:20:33 10° ENE daylight
27 Jul - 18:37:35 10° WNW 18:42:23 83° NNE 18:50:13 10° ESE visible
27 Jul - 21:01:51 10° W 21:08:35 69° S 21:21:56 10° E visible
27 Jul - 23:26:23 10° WSW 23:36:29 82° NNW 23:56:54 10° ENE visible
28 Jul - 01:52:34 10° W 02:06:19 43° NNW 02:28:24 10° NNE visible
28 Jul - 04:27:43 10° WNW 04:37:48 15° NW 04:49:17 10° NNW visible
28 Jul - 17:27:27 10° NW 17:31:43 46° NNE 17:37:26 10° ESE daylight
28 Jul - 19:51:23 10° W 19:56:55 68° S 20:07:01 10° ESE visible
28 Jul - 22:15:44 10° WSW 22:23:57 84° SSE 22:40:51 10° ENE visible
29 Jul - 00:40:47 10° WSW 00:52:38 56° NNW 01:14:20 10° NE visible
29 Jul - 03:10:12 10° W 03:23:22 24° NW 03:40:57 10° N visible
29 Jul - 16:17:52 10° NNW 16:21:16 21° NE 16:24:57 10° E daylight
29 Jul - 18:40:55 10° WNW 18:45:41 80° SSW 18:53:20 10° ESE visible
29 Jul - 21:05:16 10° WSW 21:11:56 71° S 21:25:04 10° E visible
29 Jul - 23:29:43 10° WSW 23:39:34 71° NNW 23:59:16 10° NE visible
30 Jul - 01:56:27 10° W 02:09:18 34° NNW 02:29:14 10° NNE visible
30 Jul - 17:30:30 10° WNW 17:34:52 66° NNE 17:40:43 10° ESE daylight
30 Jul - 19:54:50 10° W 20:00:18 64° S 20:10:11 10° E visible
30 Jul - 22:19:04 10° WSW 22:27:08 87° NNW 22:43:40 10° ENE night (unlit)
31 Jul - 00:44:20 10° W 00:55:41 46° NNW 01:15:50 10° NE visible
31 Jul - 03:15:56 10° WNW 03:26:30 17° NW 03:39:46 10° N visible
31 Jul - 16:20:18 10° NW 16:24:20 33° NNE 16:28:40 10° E daylight
31 Jul - 18:44:20 10° W 18:49:02 68° S 18:56:29 10° ESE visible
31 Jul - 21:08:39 10° WSW 21:15:13 76° SSE 21:28:10 10° E visible
31 Jul - 23:33:07 10° WSW 23:42:39 60° NNW 00:01:21 10° NE visible
01 Aug - 02:00:48 10° W 02:12:24 26° NW 02:29:29 10° NNE visible
01 Aug - 15:10:44 10° N 15:13:43 16° NNE 15:16:29 10° ENE daylight
01 Aug - 17:33:43 10° WNW 17:38:08 89° NNE 17:43:55 10° ESE daylight
01 Aug - 19:58:16 10° WSW 20:03:41 64° S 20:13:23 10° E visible
01 Aug - 22:22:25 10° WSW 22:30:17 76° NNW 22:46:17 10° ENE night (unlit)
